User: anonymous   Login
Location: Theydon Bois
(51.6750°N, 0.1050°E)
Time: 21:34:31
(UTC+01:00)
Language:

Terra - Orbit

View from above orbital plane
View from above orbital plane
View from above satellite
View from above satellite

Ground track
Ground track

The orbit data is extracted from the following two-line orbital elements,

1 25994U 99068A   18197.23162032  .00000016  00000-0  13551-4 0  9992
2 25994  98.2045 271.6788 0001064  62.6336 297.4959 14.57112760988054
Epoch (UTC): 16 July 2018 05:33:31
Eccentricity: 0.0001064
inclination: 98.2045°
perigee height: 702 km
apogee height: 703 km
right ascension of ascending node: 271.6788°
argument of perigee: 62.6336°
revolutions per day: 14.57112760
mean anomaly at epoch: 297.4959°
orbit number at epoch: 98805

The dashed part of the orbit path shows where the satellite is in the earth's shadow,  

DLR